VE7EOZ-10 Weather Reports


Display with metric or nautical units.
time (UTC)temp
F
wind
direction
speed
MPH
gust
MPH
rain 1hr
in
rain 24hr
in
rain mn
in
humidity
%
barometer
mb
20260503172549 59 52 0.0 6.0 0.00 0.00 0.00 55 1020.2
20260503172050 58 323 0.0 6.0 0.00 0.00 0.00 54 1020.3
20260503171548 58 354 0.0 5.0 0.00 0.00 0.00 56 1020.4
20260503171048 58 354 2.0 6.0 0.00 0.00 0.00 57 1020.6
20260503170547 58 343 3.0 6.0 0.00 0.00 0.00 55 1020.7
20260503150530 43 348 0.0 2.0 0.00 0.00 0.00 86 1021.1
20260503131017 38 348 0.0 0.0 0.00 0.00 0.00 85 1020.7
20260503130518 38 348 0.0 0.0 0.00 0.00 0.00 85 1020.6
20260503110558 41 348 0.0 0.0 0.00 0.00 0.00 80 1019.9
20260503081539 48 348 0.0 0.0 0.00 0.00 0.00 70 1019.3
20260503081025 48 348 0.0 0.0 0.00 0.00 0.00 70 1019.3
20260503072516 49 348 0.0 0.0 0.00 0.00 0.00 67 1019.1
20260503072017 49 348 0.0 0.0 0.00 0.00 0.00 68 1019.1
20260503071513 49 348 0.0 0.0 0.00 0.00 0.00 68 1019.1
20260503071011 50 348 0.0 0.0 0.00 0.00 0.00 66 1019.0
20260503070511 50 348 0.0 0.0 0.00 0.00 0.00 66 1018.9
20260503055007 53 348 0.0 0.0 0.00 0.00 0.00 60 1018.7
20260503054514 53 348 0.0 0.0 0.00 0.00 0.00 58 1018.7
20260503054006 53 348 0.0 0.0 0.00 0.00 0.00 58 1018.7
20260503053506 54 348 0.0 0.0 0.00 0.00 0.00 58 1018.7
20260503053006 54 348 0.0 0.0 0.00 0.00 0.00 58 1018.7
20260503052507 54 348 0.0 0.0 0.00 0.00 0.00 57 1018.7
20260503052007 54 348 0.0 0.0 0.00 0.00 0.00 56 1018.7
20260503051506 55 348 0.0 0.0 0.00 0.00 0.00 56 1018.7
20260503051006 55 348 0.0 1.0 0.00 0.00 0.00 56 1018.6
20260503050507 55 348 0.0 0.0 0.00 0.00 0.00 55 1018.5
20260503050005 56 348 0.0 0.0 0.00 0.00 0.00 55 1018.6
20260503045506 56 348 0.0 0.0 0.00 0.00 0.00 55 1018.6
20260503045006 56 348 0.0 0.0 0.00 0.00 0.00 54 1018.5
20260503044505 56 348 0.0 0.0 0.00 0.00 0.00 53 1018.4
20260503044005 57 348 0.0 0.0 0.00 0.00 0.00 52 1018.4
20260503043508 57 348 0.0 0.0 0.00 0.00 0.00 52 1018.5
20260503043004 57 348 0.0 1.0 0.00 0.00 0.00 50 1018.4
20260503042504 58 348 0.0 1.0 0.00 0.00 0.00 50 1018.4
20260503042004 58 348 0.0 1.0 0.00 0.00 0.00 50 1018.3
20260503041505 58 348 0.0 1.0 0.00 0.00 0.00 49 1018.3
20260503041005 59 348 0.0 0.0 0.00 0.00 0.00 49 1018.3
20260503040504 59 348 0.0 0.0 0.00 0.00 0.00 48 1018.3
20260503040005 59 348 0.0 1.0 0.00 0.00 0.00 46 1018.3
20260503035503 60 348 0.0 1.0 0.00 0.00 0.00 46 1018.3
20260503035003 60 348 0.0 0.0 0.00 0.00 0.00 45 1018.3
20260503034504 61 348 0.0 0.0 0.00 0.00 0.00 43 1018.2
20260503034002 61 348 0.0 0.0 0.00 0.00 0.00 44 1018.2
20260503033503 62 348 0.0 0.0 0.00 0.00 0.00 43 1018.1
20260503033003 62 348 0.0 0.0 0.00 0.00 0.00 41 1018.0
20260503032503 63 348 0.0 0.0 0.00 0.00 0.00 43 1018.1
20260503032003 63 348 0.0 0.0 0.00 0.00 0.00 41 1018.1
20260503031503 64 348 0.0 0.0 0.00 0.00 0.00 38 1018.1
20260503031003 64 348 0.0 0.0 0.00 0.00 0.00 38 1018.0
20260503030502 65 348 0.0 0.0 0.00 0.00 0.00 39 1017.9
20260503030005 65 348 0.0 0.0 0.00 0.00 0.00 37 1018.0
20260503025501 66 348 0.0 0.0 0.00 0.00 0.00 37 1018.0
20260503025002 66 348 0.0 0.0 0.00 0.00 0.00 34 1017.9
20260503024501 67 348 0.0 2.0 0.00 0.00 0.00 33 1018.0
20260503024001 67 348 0.0 2.0 0.00 0.00 0.00 31 1017.9
20260503023500 68 348 0.0 0.0 0.00 0.00 0.00 31 1017.9
20260503023001 68 348 0.0 0.0 0.00 0.00 0.00 31 1018.0
20260503022500 69 348 0.0 0.0 0.00 0.00 0.00 30 1017.9
20260503022100 69 348 0.0 1.0 0.00 0.00 0.00 30 1018.0
20260503021602 69 348 0.0 2.0 0.00 0.00 0.00 28 1018.0
20260503021100 69 348 0.0 3.0 0.00 0.00 0.00 27 1018.1
20260503020600 69 348 0.0 3.0 0.00 0.00 0.00 25 1018.1
20260503015557 70 348 2.0 5.0 0.00 0.00 0.00 25 1018.1
20260503015100 69 333 1.0 4.0 0.00 0.00 0.00 25 1018.3
20260503014625 70 333 0.0 3.0 0.00 0.00 0.00 24 1018.2
20260503014057 70 333 0.0 4.0 0.00 0.00 0.00 24 1018.3
20260503013556 70 356 1.0 4.0 0.00 0.00 0.00 23 1018.3
20260503013056 70 347 0.0 4.0 0.00 0.00 0.00 24 1018.4
20260503012556 70 276 1.0 5.0 0.00 0.00 0.00 23 1018.4
20260503012055 70 276 0.0 6.0 0.00 0.00 0.00 23 1018.4
20260503011622 71 255 1.0 5.0 0.00 0.00 0.00 23 1018.3
20260503011058 71 325 2.0 5.0 0.00 0.00 0.00 23 1018.4
20260503010555 71 348 1.0 5.0 0.00 0.00 0.00 23 1018.3
20260503010055 71 340 1.0 5.0 0.00 0.00 0.00 23 1018.3
20260503005557 71 11 1.0 5.0 0.00 0.00 0.00 24 1018.4
20260503005054 71 320 0.0 4.0 0.00 0.00 0.00 24 1018.5
20260503004553 71 319 1.0 4.0 0.00 0.00 0.00 23 1018.4
20260503004052 71 242 0.0 4.0 0.00 0.00 0.00 23 1018.5
20260503003552 72 234 0.0 10.0 0.00 0.00 0.00 23 1018.6
20260503003053 72 333 4.0 10.0 0.00 0.00 0.00 22 1018.7
20260503002550 72 37 2.0 9.0 0.00 0.00 0.00 23 1018.6
20260503002049 72 343 0.0 3.0 0.00 0.00 0.00 23 1018.8
20260503001548 71 343 0.0 5.0 0.00 0.00 0.00 24 1018.9
20260503001048 72 343 2.0 7.0 0.00 0.00 0.00 24 1018.9
20260503000546 72 294 2.0 7.0 0.00 0.00 0.00 23 1019.0
20260503000046 72 347 1.0 6.0 0.00 0.00 0.00 23 1019.0
20260502235545 72 75 1.0 5.0 0.00 0.00 0.00 23 1019.1
20260502235045 72 284 1.0 6.0 0.00 0.00 0.00 26 1019.1
20260502234606 71 322 4.0 6.0 0.00 0.00 0.00 25 1019.1
20260502234044 71 265 0.0 6.0 0.00 0.00 0.00 25 1019.1
20260502233545 71 265 1.0 6.0 0.00 0.00 0.00 24 1019.1
20260502233044 71 5 0.0 12.0 0.00 0.00 0.00 24 1019.1
20260502232543 72 328 3.0 12.0 0.00 0.00 0.00 25 1019.3
20260502232044 72 317 1.0 6.0 0.00 0.00 0.00 24 1019.2
20260502231542 71 342 2.0 7.0 0.00 0.00 0.00 24 1019.3
20260502231042 71 294 2.0 5.0 0.00 0.00 0.00 25 1019.3
20260502230542 70 284 2.0 7.0 0.00 0.00 0.00 24 1019.3
20260502230041 71 339 3.0 10.0 0.00 0.00 0.00 24 1019.4
20260502225539 71 321 1.0 7.0 0.00 0.00 0.00 24 1019.4
20260502225043 72 227 2.0 9.0 0.00 0.00 0.00 24 1019.6
20260502224538 72 256 4.0 9.0 0.00 0.00 0.00 24 1019.7
20260502224037 72 239 3.0 6.0 0.00 0.00 0.00 26 1019.7
20260502223539 72 317 0.0 5.0 0.00 0.00 0.00 28 1019.8
20260502223036 72 321 1.0 5.0 0.00 0.00 0.00 27 1019.8
20260502222535 72 262 0.0 7.0 0.00 0.00 0.00 27 1019.9
20260502222034 72 284 3.0 7.0 0.00 0.00 0.00 28 1019.9
20260502221533 72 277 2.0 7.0 0.00 0.00 0.00 29 1019.9
20260502221032 72 108 1.0 4.0 0.00 0.00 0.00 30 1020.0
20260502220531 71 20 0.0 1.0 0.00 0.00 0.00 31 1020.1
20260502220031 71 20 0.0 2.0 0.00 0.00 0.00 30 1020.1
20260502215529 71 20 0.0 3.0 0.00 0.00 0.00 30 1020.1
20260502215027 71 338 1.0 5.0 0.00 0.00 0.00 30 1020.3
20260502214527 71 324 2.0 5.0 0.00 0.00 0.00 29 1020.5
20260502214028 70 273 0.0 3.0 0.00 0.00 0.00 32 1020.6
20260502213525 70 315 0.0 5.0 0.00 0.00 0.00 31 1020.6
20260502213035 70 315 2.0 5.0 0.00 0.00 0.00 30 1020.8
20260502212523 70 259 0.0 5.0 0.00 0.00 0.00 30 1020.8
20260502212022 70 247 1.0 5.0 0.00 0.00 0.00 32 1020.9
20260502211523 69 239 1.0 7.0 0.00 0.00 0.00 33 1020.8
20260502211021 69 306 1.0 8.0 0.00 0.00 0.00 33 1021.0
20260502210523 69 266 2.0 8.0 0.00 0.00 0.00 33 1021.0
20260502210019 69 263 2.0 8.0 0.00 0.00 0.00 33 1021.1
20260502205519 69 348 2.0 7.0 0.00 0.00 0.00 33 1021.1
20260502205019 69 317 2.0 5.0 0.00 0.00 0.00 33 1021.1
20260502204518 69 332 0.0 4.0 0.00 0.00 0.00 34 1021.2
20260502204019 69 331 1.0 5.0 0.00 0.00 0.00 31 1021.3
20260502203515 70 294 2.0 5.0 0.00 0.00 0.00 32 1021.3
20260502203015 70 335 0.0 3.0 0.00 0.00 0.00 32 1021.5
20260502202514 70 289 1.0 5.0 0.00 0.00 0.00 34 1021.6
20260502202014 70 305 1.0 5.0 0.00 0.00 0.00 33 1021.6
20260502201524 69 202 0.0 6.0 0.00 0.00 0.00 34 1021.6
20260502201011 68 269 1.0 6.0 0.00 0.00 0.00 37 1021.6
20260502200512 68 340 1.0 5.0 0.00 0.00 0.00 35 1021.7
20260502200009 68 338 1.0 5.0 0.00 0.00 0.00 35 1021.8
20260502195508 67 225 1.0 5.0 0.00 0.00 0.00 37 1022.0
20260502195006 67 72 0.0 4.0 0.00 0.00 0.00 35 1022.0
20260502194505 67 273 0.0 7.0 0.00 0.00 0.00 37 1022.2
20260502194005 67 273 1.0 7.0 0.00 0.00 0.00 36 1022.2
20260502193505 68 161 0.0 2.0 0.00 0.00 0.00 37 1022.2
20260502193005 67 161 0.0 5.0 0.00 0.00 0.00 38 1022.2
20260502192503 67 161 1.0 5.0 0.00 0.00 0.00 38 1022.4
20260502192002 66 161 1.0 4.0 0.00 0.00 0.00 39 1022.4
20260502191501 66 161 0.0 2.0 0.00 0.00 0.00 39 1022.4
20260502191100 66 161 0.0 4.0 0.00 0.00 0.00 40 1022.5
20260502190559 65 161 0.0 4.0 0.00 0.00 0.00 43 1022.6
20260502190058 64 161 0.0 3.0 0.00 0.00 0.00 42 1022.7
20260502185556 63 161 0.0 3.0 0.00 0.00 0.00 42 1022.7
20260502185054 63 161 0.0 2.0 0.00 0.00 0.00 43 1022.9
20260502184602 62 161 1.0 2.0 0.00 0.00 0.00 44 1022.9
20260502184052 61 161 0.0 4.0 0.00 0.00 0.00 47 1023.1
20260502183550 60 161 0.0 3.0 0.00 0.00 0.00 45 1023.1
20260502183050 60 161 1.0 3.0 0.00 0.00 0.00 45 1023.3
20260502182548 59 161 0.0 3.0 0.00 0.00 0.00 47 1023.3
20260502182045 58 161 0.0 4.0 0.00 0.00 0.00 48 1023.3
20260502181545 58 161 1.0 4.0 0.00 0.00 0.00 48 1023.4
20260502181043 57 161 0.0 4.0 0.00 0.00 0.00 51 1023.5
20260502180542 56 161 0.0 3.0 0.00 0.00 0.00 54 1023.5